[Iaude] MPEC H12: 2024 HB [a=1.00,e=0.34,i=13.9,H=27.8]

mpec at cfa.harvard.edu mpec at cfa.harvard.edu
Wed Apr 17 01:27:39 EDT 2024


M.P.E.C. 2024-H12                                Issued 2024 April 17, 05:26 UT

     The Minor Planet Electronic Circulars contain information on unusual
         minor planets, routine data on comets and natural satellites,
         and occasional editorial announcements.  They are published
    on behalf of Division F of the International Astronomical Union by the
          Minor Planet Center, Smithsonian Astrophysical Observatory,
                          Cambridge, MA 02138, U.S.A.
			  
             Prepared using the Tamkin Foundation Computer Network

                              MPC at CFA.HARVARD.EDU
            URL https://www.minorplanetcenter.net/    ISSN 1523-6714

                                    2024 HB                                     


Observations:
     K24H00B*1C2024 04 16.20802612 12 26.860+29 01 38.20         19.60GVEH012G96
     K24H00B 1C2024 04 16.21322412 12 42.180+29 01 35.60               VEH012G96
     K24H00B 1C2024 04 16.21841312 12 57.380+29 01 32.40               VEH012G96
     K24H00B 1C2024 04 16.22361612 13 12.460+29 01 30.10         19.70GVEH012G96
     K24H00B KC2024 04 16.26006612 14 55.828+29 00 55.15         19.84GVEH012I52
     K24H00B KC2024 04 16.26132512 14 59.240+29 00 52.88         19.63GVEH012I52
     K24H00B KC2024 04 16.26258712 15 02.711+29 00 51.84         19.71GVEH012I52
     K24H00B KC2024 04 16.26386212 15 06.253+29 00 50.26         19.99GVEH012I52
     K24H00B KC2024 04 16.40632812 21 14.760+28 55 39.43         19.58GVEH012I52
     K24H00B KC2024 04 16.40759912 21 17.971+28 55 36.05         19.84GVEH012I52
     K24H00B KC2024 04 16.40886512 21 21.150+28 55 32.70         19.70GVEH012I52
     K24H00B KC2024 04 16.41012512 21 24.131+28 55 28.09         19.63GVEH012I52
     K24H00B KC2024 04 17.03494512 41 52.591+28 37 26.18         20.5 GVEH012J95
     K24H00B KC2024 04 17.04225212 42 01.970+28 37 10.85         19.5 GVEH012J95
     K24H00B KC2024 04 17.04941012 42 11.165+28 36 56.34         20.1 GVEH012J95
     K24H00B KC2024 04 17.19485412 45 48.64 +28 35 41.2          20.4 GXEH012858
     K24H00B KC2024 04 17.20186612 45 56.06 +28 35 33.2          19.8 GXEH012858
     K24H00B KC2024 04 17.20874312 46 03.28 +28 35 25.4          20.4 GXEH012858

Observer details:
858 Tebbutt Observatory, Edgewood.  Observer F. B. Zoltowski.  0.51-m f/8.1
    Schmidt-Cassegrain + CCD.
G96 Mt. Lemmon Survey.  Observer G. J. Leonard.  Measurers T. Beuden, V. F.
    Carvajal, D. Fay, J. B. Fazekas, D. C. Fuls, A. R. Gibbs, A. D. Grauer, H.
    Groeller, J. K. Hogan, R. A. Kowalski, S. M. Larson, G. J. Leonard, D.
    Rankin, R. L. Seaman, F. C. Shelly, K. W. Wierzchos.  1.5-m reflector +
    10K CCD.
I52 Steward Observatory, Mt. Lemmon Station.  Observers T. Beuden, J. B.
    Fazekas.  Measurers T. Beuden, V. F. Carvajal, D. Fay, J. B. Fazekas, D.
    C. Fuls, A. R. Gibbs, A. D. Grauer, H. Groeller, J. K. Hogan, R. A.
    Kowalski, S. M. Larson, G. J. Leonard, D. Rankin, R. L. Seaman, F. C.
    Shelly, K. W. Wierzchos.  1.0-m prime focus + CCD.
J95 Great Shefford.  Observer P. Birtwhistle.  0.41-m f/6.3 Schmidt-Cassegrain
    + CCD.

Orbital elements:
2024 HB                                                  Earth MOID = 0.0004 AU
Epoch 2024 Mar. 31.0 TT = JDT 2460400.5                 MPC                     
M  56.17802              (2000.0)            P               Q                  
n   0.98118045     Peri.  250.14933     -0.07652712     -0.99188712             
a   1.0030058      Node   204.91092     +0.98100281     -0.05670167             
e   0.3372234      Incl.   13.94488     +0.17826129     -0.11377550             
P   1.00           H   27.88          G   0.15           U   8                  
Residuals in seconds of arc
240416 G96  0.3+  0.1-    240416 I52  0.4-  0.2+    240417 J95  0.2-  0.3+
240416 G96  0.1+  0.3-    240416 I52  0.1-  0.3+    240417 J95  0.0   0.3-
240416 G96  0.1+  0.6-    240416 I52  1.0-  0.1+    240417 J95  0.6+  0.3-
240416 G96  0.6-  0.3+    240416 I52  0.2+  0.3+    240417 858  0.1-  0.2+
240416 I52  0.8+  0.4+    240416 I52  1.1+  0.6+    240417 858  0.2-  0.1+
240416 I52  0.2-  0.3-    240416 I52  0.4-  0.4-    240417 858  0.2-  0.3+

Ephemeris:
2024 HB                  a,e,i = 1.00, 0.34, 14                  q = 0.6648
Date    TT    R. A. (2000) Decl.     Delta      r    Elong.  Phase     V
2024 03 18    01 31 59.4 -23 53 10   0.2013  0.8348    33.5   138.8    30.7
...
2024 04 02    01 43 21.3 -26 01 14   0.08941 0.9267    33.9   143.0    29.7
...
2024 04 10    02 00 35.5 -25 42 28   0.03322 0.9750    35.4   143.5    27.8
...
2024 04 16    11 59 09.7 +29 04 01   0.0094401.0101   134.3    45.4    19.5
2024 04 17    12 41 12.2 +28 42 09   0.01612 1.0159   138.3    41.1    20.6
2024 04 18    12 58 19.1 +28 18 11   0.02297 1.0216   139.3    39.8    21.3
...
2024 04 24    13 24 00.9 +27 12 26   0.06471 1.0551   138.6    39.1    23.6
...
2024 05 02    13 31 18.1 +26 12 32   0.1213  1.0975   135.4    40.1    25.1
...
2024 05 17    13 39 10.6 +23 40 48   0.2312  1.1692   128.5    42.6    26.7

A. U. Tomatic                (C) Copyright 2024 MPC           M.P.E.C. 2024-H12





More information about the Iaude mailing list